Regional Weather Roundup
Issued by NWS Sioux Falls, SD

Home | Current Version | Previous Version | Graphics & Text | Print | Product List | Glossary On
Versions: 1 2 3 4 5 6 7 8 9 10 11 12 13 14 15 16 17 18 19 20 21 22 23 24 25 26 27 28 29 30 31 32 33 34 35 36 37 38 39 40 41 42 43 44 45 46 47 48 49 50
954
ASUS43 KFSD 141002
RWRFSD

WEATHER ROUNDUP FOR SE SOUTH DAKOTA/SW MINNESOTA/NW IOWA
NATIONAL WEATHER SERVICE SIOUX FALLS SD
400 AM CST SUN FEB 14 2016

NOTE: "FAIR" INDICATES FEW OR NO CLOUDS BELOW 12,000 FEET WITH NO
SIGNIFICANT WEATHER AND OR OBSTRUCTIONS TO VISIBILITY.


SDZ038>040-050-052>070-141100-
SOUTHEAST SOUTH DAKOTA

CITY           SKY/WX    TMP DP  RH WIND       PRES   REMARKS
BROOKINGS      LGT SNOW  11   7  84 S23       29.89F FOG     WCI  -9
CHAMBERLAIN    NOT AVBL
HURON          CLOUDY    14  11  87 SE13      29.87F WCI   0
MADISON        HVY SNOW  10  10 100 SE17      29.88F WCI  -7
MITCHELL       LGT SNOW  16  12  84 SE16      29.88F FOG     WCI   1
SIOUX FALLS    LGT SNOW  14   9  80 SE15G22   29.92F WCI  -1
WINNER         CLOUDY    38  32  79 NW14      29.79F
YANKTON        CLOUDY    16  10  79 SE16G23   29.89F WCI   0
$$

MNZ071-072-080-081-089-090-097-098-141100-
SOUTHWEST MINNESOTA

CITY           SKY/WX    TMP DP  RH WIND       PRES   REMARKS
FAIRMONT       CLOUDY    12   7  79 SE18      30.03F WCI  -5
JACKSON        LGT SNOW  14  10  85 SE17      30.00F WCI  -3
LUVERNE        LGT SNOW  14  10  85 SE17      29.95F WCI  -3
MARSHALL       LGT SNOW  13  10  88 S20       29.98F FOG     WCI  -5
MONTEVIDEO     LGT SNOW  12   9  85 S13G18    30.02F WCI  -3
PIPESTONE      LGT SNOW  12   5  73 S15G21    29.91F WCI  -4
REDWOOD FALLS  CLOUDY    13   9  84 SE21      30.04F WCI  -5
TRACY          LGT SNOW  14  11  86 S17G23    29.98F VSB 3/4 WCI  -2
WINDOM         LGT SNOW  12   9  85 SE18G24   30.00F WCI  -5
WORTHINGTON    CLOUDY    10   7  85 SE20      29.96F WCI  -8
$$

IAZ001>003-012>014-020>022-031-032-NEZ013-014-SDZ071-141100-
NORTHWEST IOWA

CITY           SKY/WX    TMP DP  RH WIND       PRES   REMARKS
ESTHERVILLE    CLOUDY    12  10  92 SE23      30.01F FOG     WCI  -7
SIOUX CITY     CLOUDY    19   7  59 S16       29.97F WCI   4
SPENCER        CLOUDY    13   8  81 SE20      30.00F HAZE    WCI  -5
STORM LAKE     CLOUDY    12  12 100 SE23G29   29.97F WCI  -7
$$

ABBREVIATIONS USED IN REMARKS
   TC - TEMPERATURE IN CELSIUS
  WCI - WIND CHILL INDEX
   HX - HEAT INDEX
  VSB - VISIBILITY





USA.gov is the U.S. government's official web portal to all federal, state and local government web resources and services.